Regional Weather Roundup
Issued by NWS Albany, NY

Home | Current Version | Previous Version | Graphics & Text | Print | Product List | Glossary On
Versions: 1 2 3 4 5 6 7 8 9 10 11 12 13 14 15 16 17 18 19 20 21 22 23 24 25 26 27 28 29 30 31 32 33 34 35 36 37 38 39 40 41 42 43 44 45 46 47 48 49 50
000
ASUS41 KALY 171410
RWRALY

NEW YORK STATE HOURLY WEATHER ROUNDUP
NATIONAL WEATHER SERVICE ALBANY NY
1000 AM EDT WED SEP 17 2014

NOTE: "FAIR" INDICATES FEW OR NO CLOUDS BELOW 12,000 FEET WITH NO
SIGNIFICANT WEATHER AND/OR NO OBSTRUCTIONS TO VISIBILITY.

NYZ032-033-038>043-046>054-057>066-NYZ062>081-171500-
EAST


CITY           SKY/WX    TMP DP  RH WIND       PRES   REMARKS
ALBANY         MOSUNNY   57  47  69 VRB3      30.06F
GLENS FALLS    SUNNY     55  48  77 S6        30.04F
POUGHKEEPSIE   MOSUNNY   56  51  84 VRB3      30.07S
NEWBURGH       SUNNY     57  50  77 CALM      30.09R
MONTGOMERY     SUNNY     57  49  74 S5        30.07S
WHITE PLAINS   SUNNY     63  44  50 N6        30.06S
ISLIP          MOSUNNY   65  46  50 N9        30.04S
NEW YORK CITY  MOSUNNY   64  47  53 NE6       30.06R
CENTRAL PARK   SUNNY     63  44  50 E5        30.10R
$$

NYZ005>009-017-018-044>046-055-056-171500-
CENTRAL


CITY           SKY/WX    TMP DP  RH WIND       PRES   REMARKS
FULTON         SUNNY     58  50  75 SW7       30.05R
SYRACUSE       MOSUNNY   61  49  64 SW3       30.05S
ROME           SUNNY     53  48  83 CALM      30.07S
ELMIRA         SUNNY     55  49  80 SW5       30.07S
BINGHAMTON     SUNNY     52  48  86 W7        30.07R
MONTICELLO     SUNNY     54  46  76 CALM      30.09S
$$

NYZ026>034-041>043-171500-
NORTH


CITY           SKY/WX    TMP DP  RH WIND       PRES   REMARKS
WATERTOWN      SUNNY     61  48  62 SW6       30.02F
FORT DRUM      NOT AVBL
MASSENA        MOSUNNY   57  50  77 SW10      30.01F
SARANAC LAKE   MOSUNNY   51  44  77 SW9       30.01S
PLATTSBURGH    SUNNY     60  45  57 SW6       30.00F
$$

NYZ001>004-010>016-019>021-171500-
WEST


CITY           SKY/WX    TMP DP  RH WIND       PRES   REMARKS
NIAGARA FALLS  MOSUNNY   59  48  67 S6        30.03F
BUFFALO        MOSUNNY   58  49  72 S6        30.04F
DUNKIRK        CLOUDY    58  50  75 S9        30.05S
JAMESTOWN      SUNNY     52  48  87 S5        30.07S
WELLSVILLE     SUNNY     54  47  77 VRB3      30.08S
ROCHESTER      MOSUNNY   57  49  74 S5        30.05S
PENN YAN       CLOUDY    57  49  74 S7        30.06S
$$

             KEY
       WCI = WIND CHILL INDEX
       VSB = VISIBILITY
       HX  = HEAT INDEX
$$


USA.gov is the U.S. government's official web portal to all federal, state and local government web resources and services.